RH
12 13 18 17 18 18 20 20 21 16 13 14 14 14 12 11 10 11 11 14 14 20 25 42 44 56 68 86 95 98 98 99 99 100 100 100 100 100 100 100 90 94 81 67
17 16 13 11 13 16 18 21 22 19 15 16 16 15 14 13 12 10 9 11 14 19 38 44 50 59 70 86 91 98 97 98 99 98 99 100 99 100 100 100 100 91 81 68
20 13 11 13 13 16 20 23 25 26 20 18 18 18 17 14 12 11 10 10 11 18 36 44 52 57 70 84 90 90 91 95 98 94 98 100 99 100 100 100 100 90 76 69
20 15 15 11 16 13 19 17 20 25 30 31 20 28 19 15 12 11 10 11 14 13 33 41 47 58 71 82 88 85 84 91 95 95 97 95 97 97 99 98 95 83 74 74
22 18 17 17 14 15 18 15 18 25 34 32 28 28 21 15 14 12 13 14 15 16 32 40 43 51 65 77 86 83 85 90 94 93 92 90 88 91 96 96 97 91 88 84
16 13 13 14 14 13 13 17 21 24 28 43 35 33 25 18 15 12 10 12 13 16 30 34 38 44 60 72 84 83 85 91 92 91 91 86 81 90 89 88 85 87 91 89
17 18 14 14 18 15 15 22 39 48 52 64 32 31 25 18 14 11 14 15 16 20 30 34 38 42 53 73 73 87 88 86 94 87 91 85 85 90 88 88 82 83 83 88
22 22 12 15 20 21 17 23 38 47 59 44 39 39 24 16 13 11 10 11 18 22 31 32 36 39 49 70 73 73 81 83 91 90 90 88 86 86 86 86 84 88 81 76
33 25 9 13 16 17 19 28 22 33 32 71 50 36 25 15 15 14 13 13 19 23 29 30 36 40 45 62 72 74 77 80 84 89 89 87 86 82 81 87 84 87 82 77
40 44 13 12 12 15 18 17 31 31 46 49 37 48 36 23 19 16 14 14 19 22 28 30 32 41 41 56 64 72 68 76 84 87 87 86 86 86 82 80 78 80 80 77
28 35 39 13 13 15 15 17 17 19 27 38 46 42 35 34 26 22 20 17 17 18 25 29 30 37 38 49 56 67 65 63 74 84 87 86 86 85 81 79 77 73 72 73
30 37 45 37 19 21 26 18 19 29 31 27 33 34 33 26 23 22 19 17 17 18 22 26 29 37 38 44 50 61 61 58 65 73 82 84 88 86 82 78 76 73 74 69
39 35 43 34 25 24 29 27 21 20 23 33 49 40 22 22 19 16 18 18 18 18 20 24 27 33 38 41 45 54 60 57 57 66 72 79 79 84 83 81 73 72 71 70
42 28 33 44 34 26 32 29 29 31 45 34 35 27 31 42 22 18 18 19 18 18 17 21 25 26 34 38 42 47 55 56 53 60 67 72 76 80 78 75 71 63 67 70
37 33 25 22 21 20 21 27 28 33 34 41 34 28 22 21 20 18 18 19 18 16 14 15 22 27 29 35 40 44 50 53 53 52 58 66 72 72 74 74 73 72 70 69
34 46 38 36 23 20 24 22 21 20 20 21 24 27 20 18 17 18 18 17 17 17 15 14 14 20 28 32 38 43 45 52 54 52 54 57 66 68 69 70 72 72 72 73
46 48 48 52 34 26 37 26 20 17 14 16 22 20 17 19 18 20 23 23 20 17 15 14 18 18 25 30 34 40 44 50 55 54 53 55 61 66 68 68 70 72 72 73
60 54 56 61 51 61 30 14 15 20 19 17 28 17 13 17 26 26 29 44 46 40 37 37 28 23 19 18 28 34 39 44 54 56 54 54 56 63 64 67 69 76 83 88
36 49 75 64 55 36 27 22 25 42 38 40 42 40 42 41 39 31 38 42 46 47 52 50 45 39 33 24 20 31 35 40 48 54 55 54 55 59 61 83 100 99 97 100
37 48 72 67 68 58 38 26 22 28 49 42 40 42 46 43 61 45 40 43 43 46 54 56 56 46 40 30 24 25 34 40 47 51 53 52 59 85 100 100 99 100 100 100
62 71 81 79 77 52 34 26 26 47 68 41 40 43 42 44 44 44 42 43 43 54 62 67 61 55 46 50 32 52 83 94 96 92 98 99 98 100 99 100 100 100 100 100
61 84 87 73 74 76 26 26 45 44 34 31 33 42 42 42 42 39 38 49 56 68 72 77 74 82 83 83 86 93 98 100 100 100 99 99 100 100 100 99 100 100 100 100
80 49 56 51 50 36 33 40 36 28 26 27 35 32 36 40 38 37 53 69 75 74 79 86 88 93 94 91 91 97 100 100 100 100 100 100 100 100 100 100 100 100 100 99
53 39 66 80 49 40 41 39 37 22 22 27 30 37 36 41 45 57 72 75 78 79 81 86 89 92 94 97 98 99 99 99 100 99 100 100 100 100 100 100 99 99 99 99
44 58 55 65 31 31 28 32 35 32 28 28 38 39 43 65 72 80 81 86 86 87 89 91 92 91 93 96 98 99 100 99 99 99 100 100 100 100 100 100 100 100 100 100
40 44 57 61 39 40 39 30 29 28 31 43 45 46 57 67 72 81 90 89 87 90 92 94 98 98 99 99 100 100 100 99 98 98 98 99 99 99 99 98 99 98 97 97
Wind_Speed
19 15 19 22 22 24 21 22 22 22 20 19 13 12 14 15 17 13 12 10 12 10 10 19 13 13 14 13 14 13 13 12 12 13 12 17 19 30 30 38 45 41 32 27
15 22 21 22 23 24 25 25 26 22 23 21 19 15 14 15 18 15 16 14 10 11 17 14 15 14 15 15 16 15 14 14 14 12 13 15 22 25 34 34 40 42 34 24
20 17 24 21 23 24 24 24 20 23 21 24 22 17 15 19 20 19 19 12 8 13 18 15 14 15 16 16 18 17 18 19 16 18 23 26 29 28 33 35 34 33 32 24
21 20 21 22 23 22 24 19 20 16 17 15 19 16 18 15 17 16 19 14 6 8 19 17 15 15 18 17 18 17 17 20 21 21 22 25 25 23 26 33 36 36 34 25
22 20 21 22 23 16 20 20 17 17 18 18 23 14 12 15 14 18 14 14 15 14 19 19 16 20 20 21 21 19 19 18 21 22 21 20 21 23 28 26 29 30 27 27
22 20 21 23 21 22 16 16 13 13 11 16 19 20 14 14 18 13 8 6 2 12 18 18 18 22 22 22 22 21 20 19 23 23 26 22 23 27 26 28 31 29 28 30
22 22 22 20 14 16 16 10 8 9 7 11 16 16 14 12 16 5 10 9 4 11 15 17 18 16 22 24 21 23 23 21 22 22 25 26 26 27 30 33 33 31 30 28
11 16 25 17 19 18 19 17 8 12 10 9 9 10 14 13 18 7 3 2 13 11 14 16 18 16 21 25 24 21 23 23 23 22 24 25 30 28 29 32 32 29 31 31
8 17 18 23 17 20 18 18 17 18 7 2 7 14 17 5 10 6 3 6 9 12 13 16 17 17 23 26 27 25 25 23 24 23 25 26 28 29 28 33 31 30 28 29
5 7 5 4 22 16 16 12 13 10 14 14 8 4 8 10 5 6 7 7 8 10 15 15 16 15 23 27 26 28 26 27 27 26 25 26 28 26 28 31 32 31 31 30
6 6 4 5 7 14 14 15 15 12 12 10 8 3 4 10 12 10 11 5 3 1 14 14 14 21 23 27 27 27 27 27 30 30 29 27 27 30 29 28 32 33 35 34
6 4 5 12 7 2 6 17 18 11 12 8 10 7 7 1 9 8 10 11 3 6 7 12 14 16 22 25 26 28 26 27 30 31 32 29 30 30 32 31 31 35 34 38
7 3 6 6 5 8 8 10 10 16 11 14 6 6 10 10 6 1 5 10 13 4 2 8 13 16 16 23 26 27 29 27 27 32 30 32 31 32 31 31 34 35 36 35
5 5 9 7 8 9 4 9 6 7 5 10 12 12 4 16 15 4 5 6 10 10 7 5 8 11 16 23 25 26 27 27 27 29 32 31 32 33 34 31 30 31 28 28
3 6 12 16 14 13 12 12 11 11 8 7 12 15 13 8 11 12 11 11 12 14 14 6 6 7 8 18 24 26 28 29 28 28 29 31 33 32 32 33 34 32 31 31
2 8 10 14 15 15 17 17 17 17 15 15 15 19 16 15 13 12 10 9 11 12 16 15 8 6 11 10 21 25 27 30 31 29 29 28 30 31 31 31 32 32 31 30
2 4 7 10 12 14 12 15 16 15 16 15 17 14 14 13 14 11 12 16 15 11 11 15 11 6 5 14 21 24 28 30 32 31 28 29 29 29 29 27 28 29 29 27
3 6 4 5 8 7 9 8 4 5 8 10 13 14 16 12 9 10 13 16 20 22 20 19 15 14 8 8 20 26 27 28 30 29 27 26 26 27 26 26 24 21 24 23
12 8 3 3 6 11 15 10 4 5 6 10 10 14 15 15 12 8 14 16 16 19 17 17 26 27 25 22 17 21 24 26 27 28 27 27 27 25 25 20 24 24 27 24
16 11 6 4 6 4 7 8 7 6 4 9 8 9 10 13 7 9 19 18 17 14 16 19 28 27 26 25 18 11 16 21 18 20 20 25 26 28 29 29 29 28 29 30
14 11 13 10 5 8 6 10 5 3 4 7 10 8 10 10 8 13 15 15 14 14 18 22 22 23 21 23 17 9 20 19 17 22 22 23 30 36 35 32 31 34 37 37
12 9 7 7 5 10 9 8 2 2 4 7 7 6 7 7 8 11 16 12 14 12 15 17 16 17 20 22 18 16 17 16 23 27 29 26 26 34 36 39 34 34 37 34
5 8 7 9 5 10 10 9 8 6 5 6 5 7 9 11 12 13 11 9 8 10 13 15 12 10 13 13 10 15 14 21 27 32 31 31 30 30 31 32 30 33 32 38
5 9 3 4 8 10 14 8 14 11 6 8 8 11 11 12 12 10 7 7 9 11 12 12 9 7 9 12 13 15 19 22 26 32 31 30 33 34 33 31 28 24 23 29
4 3 9 9 12 5 7 9 15 13 8 6 10 8 9 10 8 5 6 8 6 9 13 12 10 10 12 15 17 16 19 27 30 31 30 30 31 32 36 34 27 29 23 26
9 10 5 3 7 1 9 8 5 7 8 11 8 9 7 8 7 6 8 9 10 11 11 14 18 19 17 16 20 20 20 24 28 29 30 28 31 31 33 38 46 43 43 36
Wind_Direction
212 223 229 224 228 245 260 266 267 262 268 250 257 239 260 278 277 252 242 203 224 182 146 132 143 142 134 156 155 158 155 160 155 155 153 194 179 182 182 178 178 176 162 160
226 224 234 239 244 241 238 248 262 273 283 293 293 262 269 280 278 267 258 256 195 161 132 141 145 161 155 166 163 163 163 157 142 126 125 146 157 150 149 149 157 163 162 153
220 236 221 234 244 244 245 247 246 265 283 285 284 273 267 262 257 257 263 242 215 176 151 154 156 174 162 170 171 173 170 159 142 132 119 117 133 128 132 133 137 149 162 158
242 244 244 247 226 241 251 243 259 264 273 274 279 281 255 261 269 264 224 228 204 233 151 154 162 172 171 175 176 177 169 155 156 147 136 137 142 143 145 147 150 152 161 162
247 248 257 243 254 236 250 258 241 241 235 270 273 271 263 273 263 263 190 201 197 196 153 156 169 168 176 175 176 175 172 164 159 157 156 148 148 146 149 152 146 153 168 165
259 268 254 240 249 248 259 240 243 268 254 251 247 260 259 254 256 254 195 144 248 167 148 152 165 162 169 169 176 175 176 171 169 161 161 162 152 151 150 158 163 170 176 187
244 249 259 266 259 261 211 216 229 222 217 245 255 246 246 256 260 281 142 145 145 143 149 155 166 165 167 168 179 174 178 179 176 172 168 166 161 164 165 165 172 176 185 188
219 240 232 240 223 237 210 209 215 216 219 261 326 254 241 222 251 224 199 88 156 160 155 166 169 168 166 165 182 186 182 181 182 181 173 171 172 171 174 176 178 182 187 189
292 263 220 212 211 237 220 211 226 270 251 196 268 283 267 269 285 133 154 195 158 162 164 177 167 170 169 169 179 189 181 185 186 186 177 175 173 183 179 181 184 189 188 190
288 276 177 215 209 218 251 221 213 235 251 252 245 259 284 285 246 221 204 205 173 170 169 178 170 169 172 171 180 187 187 185 184 191 187 184 182 180 181 184 188 191 194 193
333 269 287 173 194 217 219 244 245 258 226 245 257 232 284 333 342 39 1 42 66 222 171 174 179 168 173 171 178 186 188 188 182 186 191 191 189 191 187 187 197 203 204 202
66 307 263 261 181 227 313 221 230 235 238 241 252 241 146 122 349 14 3 358 23 328 185 167 180 165 170 172 177 183 194 194 186 186 184 193 194 194 198 203 202 203 203 206
354 263 283 261 262 235 246 250 238 228 251 254 272 285 205 192 177 68 359 335 336 45 251 173 179 169 173 175 179 184 193 198 188 186 186 186 194 192 200 205 202 210 205 204
344 288 287 277 335 347 290 285 315 283 253 244 250 260 202 315 307 343 8 336 319 333 312 187 200 189 177 179 183 185 189 196 195 186 189 191 191 195 198 201 203 209 205 205
234 269 286 286 287 290 283 282 279 277 269 272 280 283 287 329 334 325 331 336 327 324 315 297 201 199 191 182 183 185 186 191 197 197 193 194 194 195 195 200 204 206 205 212
282 263 268 272 278 272 275 269 268 263 264 261 259 265 278 289 306 308 300 293 293 298 302 308 292 234 188 189 184 185 187 190 192 202 201 198 195 196 198 198 200 204 208 209
302 250 272 271 274 267 264 254 256 259 255 255 259 270 270 273 269 300 334 336 321 302 280 290 324 231 200 191 188 190 194 187 192 198 199 201 194 195 197 200 199 200 202 203
220 265 279 279 294 239 246 262 323 309 289 290 311 251 251 294 328 337 342 15 357 349 350 354 345 336 323 252 193 195 188 189 188 194 198 197 195 193 194 194 196 188 183 170
231 227 252 241 249 273 298 298 267 2 58 35 12 9 15 5 343 334 29 3 352 343 356 344 337 334 336 329 321 192 185 187 185 188 191 191 190 187 190 162 146 147 145 135
213 214 225 199 241 241 86 64 39 324 198 45 22 23 18 353 356 325 343 341 332 338 349 337 330 323 319 317 315 304 185 183 181 182 186 186 173 152 138 145 142 135 129 117
195 194 213 232 252 268 250 316 357 246 48 2 1 3 352 345 347 332 332 320 330 350 346 335 330 319 330 343 305 29 65 75 99 123 121 120 131 139 139 131 130 127 117 111
175 185 193 231 245 252 273 229 334 61 288 317 342 35 335 329 334 331 315 330 327 3 353 345 332 354 4 16 50 67 71 91 108 113 108 101 103 115 123 124 116 111 109 102
205 204 188 191 216 263 328 354 330 276 314 324 352 337 354 334 323 323 339 345 7 7 8 350 349 16 27 32 64 85 82 98 102 100 94 95 93 93 100 104 110 115 116 114
297 213 209 14 271 249 253 246 252 283 318 24 4 17 357 325 315 349 28 20 11 14 8 353 356 44 58 74 86 100 107 106 100 99 98 99 99 98 95 94 98 99 106 105
249 352 247 235 262 8 334 32 4 344 329 324 45 13 346 348 18 35 53 37 27 28 11 17 18 60 71 77 82 91 105 112 104 99 98 95 94 93 90 83 84 93 93 105
268 237 214 256 55 303 288 28 302 325 0 54 25 3 27 17 15 24 55 48 24 40 35 41 36 39 56 79 84 85 91 99 103 102 101 102 99 97 95 95 87 75 88 96